QPF
0.00 0.00 0.00 0.00 0.00 0.00 0.00 0.00 0.00 0.00 0.00 0.00 0.01 0.02 0.04 0.08 0.12 0.08 0.03 0.01 0.00 0.00 0.00 0.00 0.00 0.00 0.00 0.00 0.00 0.00 0.00 0.00 0.00 0.00 0.00 0.00 0.00 0.00 0.00 0.00 0.00 0.00 0.00 0.00 0.00 0.00 0.00 0.00 0.00
0.00 0.00 0.00 0.00 0.00 0.00 0.00 0.00 0.00 0.00 0.00 0.00 0.01 0.01 0.04 0.04 0.04 0.03 0.03 0.02 0.01 0.00 0.00 0.00 0.00 0.00 0.00 0.00 0.00 0.00 0.00 0.00 0.00 0.00 0.00 0.00 0.00 0.00 0.00 0.00 0.00 0.00 0.00 0.00 0.00 0.00 0.00 0.00 0.00
0.00 0.00 0.00 0.00 0.00 0.00 0.00 0.00 0.00 0.00 0.00 0.00 0.00 0.02 0.04 0.03 0.02 0.03 0.04 0.03 0.02 0.00 0.00 0.00 0.00 0.00 0.00 0.00 0.00 0.00 0.00 0.00 0.00 0.00 0.00 0.00 0.00 0.00 0.00 0.00 0.00 0.00 0.00 0.00 0.00 0.00 0.00 0.00 0.00
0.00 0.00 0.00 0.00 0.00 0.00 0.00 0.00 0.00 0.00 0.00 0.00 0.00 0.02 0.03 0.03 0.03 0.04 0.05 0.04 0.03 0.01 0.00 0.00 0.00 0.00 0.00 0.00 0.00 0.00 0.00 0.00 0.00 0.00 0.00 0.00 0.00 0.00 0.00 0.00 0.00 0.00 0.00 0.00 0.00 0.00 0.00 0.00 0.00
0.00 0.00 0.00 0.00 0.00 0.00 0.00 0.00 0.00 0.00 0.00 0.00 0.01 0.03 0.05 0.06 0.05 0.04 0.05 0.05 0.04 0.02 0.01 0.00 0.00 0.00 0.00 0.00 0.00 0.00 0.00 0.00 0.00 0.00 0.00 0.00 0.00 0.00 0.00 0.00 0.00 0.00 0.00 0.00 0.00 0.00 0.00 0.00 0.00
0.00 0.00 0.00 0.00 0.00 0.00 0.00 0.00 0.00 0.00 0.00 0.00 0.00 0.04 0.09 0.10 0.14 0.11 0.11 0.07 0.06 0.04 0.02 0.01 0.00 0.00 0.00 0.00 0.00 0.00 0.00 0.00 0.00 0.00 0.00 0.00 0.00 0.00 0.00 0.00 0.00 0.00 0.00 0.00 0.00 0.00 0.00 0.00 0.00
0.00 0.00 0.00 0.00 0.00 0.00 0.00 0.00 0.00 0.00 0.00 0.00 0.00 0.02 0.09 0.15 0.22 0.22 0.20 0.13 0.07 0.07 0.05 0.02 0.01 0.00 0.00 0.00 0.00 0.01 0.00 0.00 0.00 0.00 0.00 0.00 0.00 0.00 0.00 0.00 0.00 0.00 0.00 0.00 0.00 0.00 0.00 0.00 0.00
0.00 0.00 0.00 0.00 0.00 0.00 0.00 0.00 0.00 0.00 0.00 0.00 0.00 0.01 0.05 0.14 0.21 0.25 0.23 0.20 0.15 0.13 0.11 0.06 0.02 0.01 0.00 0.00 0.01 0.01 0.00 0.00 0.00 0.00 0.00 0.00 0.00 0.00 0.00 0.00 0.00 0.00 0.00 0.00 0.00 0.00 0.00 0.00 0.00
0.00 0.00 0.00 0.00 0.00 0.00 0.00 0.00 0.00 0.00 0.00 0.00 0.00 0.00 0.01 0.07 0.18 0.26 0.23 0.22 0.25 0.15 0.11 0.06 0.02 0.01 0.00 0.00 0.00 0.01 0.01 0.01 0.00 0.00 0.00 0.00 0.00 0.00 0.00 0.00 0.00 0.00 0.00 0.00 0.00 0.00 0.00 0.00 0.00
0.00 0.00 0.00 0.00 0.00 0.00 0.00 0.00 0.00 0.00 0.00 0.00 0.00 0.00 0.01 0.04 0.11 0.17 0.19 0.23 0.21 0.15 0.10 0.05 0.03 0.03 0.02 0.01 0.01 0.00 0.01 0.01 0.00 0.00 0.00 0.00 0.00 0.00 0.00 0.00 0.00 0.00 0.00 0.00 0.00 0.00 0.00 0.00 0.00
0.00 0.00 0.00 0.00 0.00 0.00 0.00 0.00 0.00 0.00 0.00 0.00 0.00 0.00 0.01 0.02 0.06 0.10 0.11 0.13 0.13 0.12 0.12 0.09 0.06 0.06 0.04 0.02 0.01 0.01 0.00 0.00 0.00 0.00 0.00 0.00 0.00 0.00 0.00 0.00 0.00 0.00 0.00 0.00 0.00 0.00 0.01 0.01 0.01
0.00 0.00 0.00 0.00 0.00 0.00 0.00 0.00 0.00 0.00 0.00 0.00 0.00 0.00 0.01 0.03 0.04 0.07 0.07 0.10 0.12 0.16 0.17 0.15 0.10 0.08 0.05 0.04 0.03 0.02 0.01 0.01 0.00 0.00 0.00 0.00 0.00 0.00 0.00 0.00 0.00 0.00 0.01 0.00 0.00 0.01 0.02 0.02 0.02
0.00 0.00 0.00 0.00 0.00 0.00 0.00 0.00 0.00 0.00 0.00 0.00 0.00 0.00 0.01 0.03 0.05 0.06 0.09 0.11 0.14 0.18 0.21 0.18 0.13 0.11 0.08 0.06 0.04 0.03 0.02 0.01 0.01 0.00 0.00 0.00 0.01 0.01 0.01 0.01 0.01 0.01 0.01 0.02 0.02 0.02 0.03 0.04 0.05
0.00 0.00 0.00 0.00 0.00 0.00 0.00 0.00 0.00 0.00 0.00 0.00 0.00 0.01 0.01 0.02 0.04 0.06 0.08 0.11 0.15 0.20 0.21 0.18 0.18 0.13 0.07 0.06 0.04 0.03 0.03 0.02 0.02 0.02 0.02 0.02 0.02 0.02 0.02 0.04 0.04 0.04 0.03 0.03 0.04 0.04 0.05 0.05 0.04
0.00 0.00 0.00 0.00 0.00 0.00 0.00 0.00 0.00 0.00 0.00 0.00 0.00 0.01 0.02 0.04 0.04 0.05 0.09 0.12 0.15 0.20 0.20 0.17 0.18 0.18 0.15 0.12 0.07 0.05 0.05 0.05 0.06 0.06 0.04 0.04 0.04 0.04 0.04 0.06 0.06 0.05 0.05 0.05 0.07 0.06 0.05 0.05 0.04
0.00 0.00 0.00 0.00 0.00 0.00 0.00 0.00 0.00 0.00 0.00 0.00 0.00 0.01 0.02 0.03 0.04 0.06 0.10 0.13 0.18 0.23 0.21 0.18 0.16 0.18 0.20 0.16 0.11 0.11 0.11 0.09 0.09 0.09 0.08 0.06 0.04 0.05 0.06 0.07 0.07 0.07 0.07 0.07 0.09 0.08 0.05 0.05 0.04
0.00 0.00 0.00 0.00 0.00 0.00 0.00 0.00 0.00 0.00 0.00 0.00 0.00 0.00 0.01 0.03 0.04 0.07 0.12 0.15 0.17 0.20 0.21 0.20 0.19 0.21 0.25 0.26 0.22 0.19 0.19 0.18 0.18 0.16 0.15 0.14 0.13 0.13 0.13 0.12 0.11 0.12 0.12 0.11 0.10 0.10 0.09 0.07 0.07
0.00 0.00 0.00 0.00 0.00 0.00 0.00 0.00 0.00 0.00 0.00 0.00 0.00 0.00 0.01 0.03 0.04 0.07 0.11 0.17 0.20 0.22 0.25 0.31 0.31 0.32 0.32 0.33 0.33 0.34 0.31 0.31 0.29 0.24 0.24 0.23 0.22 0.21 0.20 0.19 0.18 0.17 0.17 0.15 0.13 0.13 0.11 0.10 0.09
0.00 0.00 0.00 0.00 0.00 0.00 0.00 0.01 0.01 0.01 0.00 0.00 0.00 0.01 0.01 0.03 0.04 0.07 0.09 0.14 0.27 0.32 0.32 0.42 0.55 0.52 0.50 0.53 0.49 0.45 0.43 0.43 0.42 0.37 0.32 0.30 0.28 0.28 0.26 0.25 0.25 0.24 0.21 0.18 0.15 0.13 0.12 0.11 0.10
0.00 0.00 0.00 0.00 0.00 0.01 0.02 0.02 0.02 0.02 0.01 0.01 0.01 0.01 0.02 0.03 0.04 0.07 0.10 0.17 0.27 0.33 0.42 0.43 0.63 0.74 0.73 0.71 0.64 0.57 0.52 0.48 0.44 0.41 0.38 0.39 0.38 0.33 0.29 0.29 0.29 0.27 0.22 0.19 0.16 0.15 0.14 0.12 0.10
0.00 0.00 0.00 0.00 0.01 0.02 0.03 0.04 0.04 0.03 0.03 0.03 0.03 0.03 0.03 0.03 0.04 0.06 0.08 0.14 0.22 0.28 0.37 0.47 0.56 0.79 0.93 0.91 0.80 0.69 0.60 0.53 0.42 0.34 0.34 0.37 0.36 0.34 0.33 0.35 0.26 0.18 0.15 0.13 0.13 0.13 0.14 0.12 0.09
0.00 0.00 0.00 0.00 0.00 0.02 0.03 0.05 0.06 0.04 0.04 0.04 0.04 0.05 0.06 0.06 0.06 0.07 0.09 0.13 0.20 0.31 0.38 0.50 0.75 0.94 1.09 1.07 1.02 0.97 0.82 0.66 0.51 0.38 0.32 0.32 0.32 0.30 0.27 0.24 0.20 0.17 0.14 0.12 0.10 0.09 0.09 0.08 0.06
0.00 0.00 0.00 0.00 0.00 0.01 0.02 0.03 0.07 0.06 0.04 0.04 0.05 0.06 0.07 0.09 0.10 0.10 0.11 0.12 0.17 0.26 0.35 0.45 0.66 0.80 0.95 1.07 1.06 1.00 0.91 0.76 0.63 0.47 0.33 0.25 0.23 0.20 0.18 0.15 0.13 0.13 0.12 0.10 0.08 0.07 0.06 0.05 0.04
0.00 0.00 0.00 0.00 0.00 0.01 0.02 0.02 0.05 0.09 0.06 0.04 0.06 0.07 0.07 0.08 0.09 0.09 0.09 0.10 0.12 0.20 0.29 0.33 0.38 0.52 0.66 0.79 0.85 0.85 0.81 0.70 0.58 0.46 0.35 0.23 0.16 0.14 0.12 0.10 0.08 0.06 0.05 0.04 0.03 0.03 0.02 0.02 0.01
0.00 0.00 0.00 0.00 0.00 0.01 0.01 0.03 0.04 0.07 0.05 0.04 0.05 0.07 0.07 0.06 0.06 0.07 0.08 0.07 0.09 0.12 0.18 0.22 0.26 0.38 0.51 0.59 0.64 0.60 0.59 0.53 0.45 0.37 0.30 0.23 0.16 0.12 0.11 0.08 0.05 0.03 0.02 0.02 0.01 0.01 0.01 0.01 0.01
0.00 0.00 0.00 0.00 0.00 0.01 0.04 0.05 0.05 0.04 0.04 0.04 0.05 0.06 0.05 0.05 0.04 0.06 0.07 0.06 0.07 0.08 0.11 0.14 0.16 0.21 0.26 0.32 0.35 0.34 0.32 0.29 0.26 0.25 0.21 0.16 0.11 0.07 0.05 0.04 0.02 0.02 0.01 0.01 0.01 0.00 0.00 0.00 0.00
0.00 0.00 0.00 0.00 0.00 0.01 0.04 0.04 0.04 0.04 0.04 0.04 0.04 0.04 0.03 0.04 0.04 0.04 0.04 0.03 0.05 0.07 0.07 0.08 0.09 0.11 0.13 0.16 0.17 0.18 0.17 0.14 0.13 0.11 0.08 0.06 0.04 0.03 0.02 0.02 0.01 0.01 0.00 0.00 0.00 0.00 0.00 0.00 0.00
0.00 0.01 0.00 0.00 0.00 0.01 0.03 0.05 0.04 0.06 0.06 0.04 0.04 0.03 0.03 0.02 0.02 0.02 0.03 0.02 0.04 0.06 0.06 0.06 0.08 0.09 0.10 0.10 0.10 0.12 0.12 0.10 0.10 0.09 0.05 0.03 0.02 0.02 0.01 0.01 0.02 0.01 0.00 0.00 0.00 0.00 0.00 0.00 0.00
0.01 0.01 0.00 0.00 0.00 0.00 0.01 0.02 0.03 0.04 0.08 0.09 0.07 0.06 0.04 0.03 0.02 0.02 0.03 0.02 0.03 0.04 0.04 0.05 0.07 0.07 0.08 0.08 0.09 0.09 0.08 0.06 0.05 0.05 0.04 0.03 0.02 0.02 0.01 0.01 0.00 0.00 0.00 0.00 0.00 0.00 0.00 0.00 0.00
0.01 0.01 0.00 0.00 0.01 0.00 0.01 0.01 0.02 0.05 0.09 0.11 0.12 0.10 0.10 0.07 0.04 0.03 0.03 0.03 0.03 0.04 0.04 0.04 0.05 0.07 0.07 0.06 0.05 0.07 0.06 0.05 0.03 0.03 0.03 0.02 0.02 0.01 0.01 0.01 0.00 0.00 0.00 0.00 0.00 0.00 0.00 0.00 0.00
MSLP
1010.43 1011.37 1012.47 1013.55 1014.46 1015.08 1015.38 1015.38 1015.17 1014.84 1014.50 1014.22 1014.00 1013.83 1013.65 1013.41 1013.08 1012.66 1012.20 1011.76 1011.42 1011.23 1011.23 1011.41 1011.70 1012.06 1012.41 1012.69 1012.89 1013.03 1013.13 1013.26 1013.46 1013.75 1014.12 1014.55 1015.00 1015.41 1015.75 1016.00 1016.18 1016.29 1016.37 1016.45 1016.54 1016.66 1016.78 1016.91 1017.02
1010.82 1011.90 1013.07 1014.12 1014.91 1015.35 1015.42 1015.19 1014.76 1014.26 1013.81 1013.47 1013.24 1013.10 1012.97 1012.80 1012.55 1012.21 1011.82 1011.46 1011.20 1011.09 1011.17 1011.42 1011.80 1012.21 1012.61 1012.94 1013.19 1013.37 1013.52 1013.68 1013.90 1014.20 1014.57 1014.97 1015.36 1015.70 1015.97 1016.16 1016.28 1016.36 1016.44 1016.54 1016.66 1016.82 1016.98 1017.13 1017.24
1011.38 1012.54 1013.70 1014.66 1015.28 1015.51 1015.34 1014.88 1014.26 1013.62 1013.07 1012.69 1012.48 1012.37 1012.31 1012.21 1012.03 1011.76 1011.45 1011.17 1011.00 1010.98 1011.14 1011.46 1011.90 1012.38 1012.83 1013.21 1013.50 1013.71 1013.89 1014.09 1014.33 1014.62 1014.97 1015.33 1015.67 1015.95 1016.16 1016.29 1016.37 1016.44 1016.52 1016.64 1016.81 1017.01 1017.21 1017.38 1017.52
1012.07 1013.24 1014.33 1015.15 1015.57 1015.57 1015.18 1014.51 1013.73 1012.98 1012.39 1012.00 1011.80 1011.73 1011.72 1011.68 1011.57 1011.37 1011.14 1010.95 1010.85 1010.92 1011.16 1011.56 1012.06 1012.58 1013.07 1013.48 1013.79 1014.03 1014.23 1014.45 1014.69 1014.99 1015.32 1015.65 1015.95 1016.18 1016.34 1016.43 1016.49 1016.56 1016.66 1016.81 1017.02 1017.26 1017.49 1017.70 1017.84
1012.80 1013.93 1014.90 1015.54 1015.75 1015.53 1014.94 1014.13 1013.24 1012.43 1011.81 1011.44 1011.27 1011.24 1011.27 1011.28 1011.22 1011.08 1010.92 1010.80 1010.79 1010.94 1011.26 1011.72 1012.26 1012.82 1013.32 1013.73 1014.06 1014.30 1014.52 1014.73 1014.99 1015.29 1015.61 1015.93 1016.20 1016.41 1016.55 1016.63 1016.68 1016.76 1016.88 1017.06 1017.30 1017.57 1017.83 1018.04 1018.20
1013.48 1014.52 1015.32 1015.77 1015.78 1015.37 1014.64 1013.73 1012.79 1011.98 1011.38 1011.04 1010.90 1010.91 1010.97 1011.01 1010.98 1010.89 1010.80 1010.75 1010.82 1011.04 1011.42 1011.92 1012.49 1013.05 1013.55 1013.96 1014.27 1014.51 1014.72 1014.95 1015.21 1015.52 1015.85 1016.17 1016.44 1016.65 1016.78 1016.87 1016.93 1017.02 1017.16 1017.36 1017.62 1017.89 1018.16 1018.37 1018.52
1014.01 1014.91 1015.53 1015.78 1015.61 1015.07 1014.26 1013.31 1012.38 1011.61 1011.08 1010.78 1010.68 1010.71 1010.79 1010.84 1010.83 1010.78 1010.73 1010.75 1010.89 1011.17 1011.60 1012.13 1012.71 1013.27 1013.74 1014.12 1014.41 1014.64 1014.85 1015.08 1015.36 1015.69 1016.04 1016.37 1016.66 1016.88 1017.03 1017.13 1017.21 1017.31 1017.45 1017.66 1017.91 1018.18 1018.43 1018.63 1018.76
1014.33 1015.05 1015.49 1015.55 1015.24 1014.61 1013.76 1012.84 1011.98 1011.29 1010.83 1010.60 1010.54 1010.58 1010.66 1010.71 1010.71 1010.69 1010.68 1010.76 1010.95 1011.29 1011.76 1012.31 1012.88 1013.41 1013.86 1014.21 1014.47 1014.69 1014.90 1015.15 1015.45 1015.80 1016.18 1016.55 1016.86 1017.10 1017.27 1017.38 1017.46 1017.57 1017.71 1017.90 1018.13 1018.38 1018.60 1018.77 1018.88
1014.41 1014.96 1015.20 1015.10 1014.68 1014.00 1013.17 1012.31 1011.55 1010.97 1010.60 1010.42 1010.39 1010.45 1010.51 1010.55 1010.56 1010.56 1010.59 1010.72 1010.97 1011.35 1011.84 1012.40 1012.96 1013.47 1013.89 1014.21 1014.45 1014.67 1014.89 1015.16 1015.49 1015.88 1016.29 1016.69 1017.03 1017.29 1017.47 1017.58 1017.67 1017.76 1017.88 1018.05 1018.25 1018.47 1018.66 1018.81 1018.89
1014.31 1014.67 1014.73 1014.49 1013.98 1013.28 1012.49 1011.73 1011.07 1010.60 1010.31 1010.19 1010.18 1010.23 1010.28 1010.31 1010.32 1010.34 1010.41 1010.59 1010.89 1011.31 1011.82 1012.39 1012.93 1013.42 1013.81 1014.12 1014.36 1014.58 1014.83 1015.13 1015.51 1015.93 1016.38 1016.80 1017.16 1017.43 1017.61 1017.72 1017.80 1017.87 1017.97 1018.11 1018.29 1018.48 1018.65 1018.77 1018.84
1014.10 1014.28 1014.17 1013.80 1013.23 1012.53 1011.80 1011.12 1010.57 1010.18 1009.96 1009.87 1009.87 1009.90 1009.93 1009.95 1009.96 1010.00 1010.12 1010.34 1010.69 1011.15 1011.68 1012.25 1012.79 1013.26 1013.64 1013.95 1014.20 1014.45 1014.73 1015.08 1015.49 1015.96 1016.43 1016.87 1017.24 1017.52 1017.70 1017.80 1017.87 1017.92 1018.01 1018.12 1018.28 1018.45 1018.61 1018.73 1018.80
1013.88 1013.88 1013.63 1013.16 1012.54 1011.85 1011.16 1010.55 1010.08 1009.75 1009.56 1009.48 1009.45 1009.46 1009.46 1009.46 1009.48 1009.56 1009.71 1009.99 1010.38 1010.87 1011.43 1012.00 1012.54 1013.01 1013.39 1013.72 1014.00 1014.29 1014.62 1015.01 1015.46 1015.96 1016.45 1016.91 1017.28 1017.56 1017.74 1017.84 1017.90 1017.95 1018.02 1018.13 1018.28 1018.45 1018.61 1018.75 1018.83
1013.72 1013.58 1013.20 1012.65 1012.00 1011.31 1010.66 1010.10 1009.66 1009.35 1009.16 1009.05 1008.98 1008.94 1008.91 1008.89 1008.92 1009.02 1009.22 1009.54 1009.98 1010.50 1011.08 1011.66 1012.20 1012.68 1013.09 1013.44 1013.77 1014.10 1014.48 1014.92 1015.41 1015.93 1016.45 1016.91 1017.29 1017.57 1017.75 1017.85 1017.91 1017.97 1018.05 1018.17 1018.33 1018.51 1018.70 1018.85 1018.96
1013.67 1013.41 1012.95 1012.34 1011.67 1010.98 1010.35 1009.81 1009.38 1009.06 1008.82 1008.65 1008.52 1008.42 1008.34 1008.31 1008.34 1008.47 1008.71 1009.06 1009.53 1010.08 1010.68 1011.27 1011.82 1012.32 1012.75 1013.14 1013.52 1013.91 1014.33 1014.81 1015.34 1015.88 1016.40 1016.87 1017.25 1017.54 1017.74 1017.86 1017.94 1018.01 1018.11 1018.25 1018.43 1018.64 1018.86 1019.05 1019.20
1013.71 1013.37 1012.85 1012.23 1011.55 1010.88 1010.27 1009.73 1009.28 1008.92 1008.61 1008.36 1008.15 1007.98 1007.85 1007.79 1007.82 1007.97 1008.23 1008.62 1009.11 1009.67 1010.27 1010.86 1011.43 1011.94 1012.41 1012.84 1013.26 1013.70 1014.17 1014.69 1015.24 1015.79 1016.32 1016.79 1017.19 1017.49 1017.71 1017.86 1017.97 1018.07 1018.20 1018.37 1018.58 1018.81 1019.06 1019.29 1019.48
1013.79 1013.41 1012.87 1012.26 1011.61 1010.98 1010.39 1009.86 1009.38 1008.96 1008.58 1008.24 1007.94 1007.70 1007.52 1007.43 1007.46 1007.60 1007.88 1008.27 1008.76 1009.31 1009.90 1010.48 1011.05 1011.57 1012.06 1012.53 1013.00 1013.48 1014.00 1014.54 1015.10 1015.67 1016.20 1016.68 1017.09 1017.42 1017.67 1017.85 1018.01 1018.15 1018.31 1018.51 1018.74 1019.00 1019.27 1019.53 1019.75
1013.82 1013.43 1012.92 1012.36 1011.78 1011.21 1010.67 1010.15 1009.65 1009.18 1008.73 1008.32 1007.94 1007.64 1007.41 1007.30 1007.30 1007.44 1007.71 1008.08 1008.54 1009.06 1009.61 1010.17 1010.71 1011.23 1011.74 1012.24 1012.74 1013.26 1013.81 1014.38 1014.95 1015.53 1016.07 1016.56 1016.99 1017.34 1017.63 1017.86 1018.06 1018.24 1018.43 1018.65 1018.89 1019.16 1019.45 1019.73 1019.98
1013.74 1013.37 1012.93 1012.47 1011.99 1011.51 1011.04 1010.56 1010.07 1009.57 1009.07 1008.59 1008.17 1007.81 1007.56 1007.42 1007.41 1007.53 1007.77 1008.10 1008.50 1008.96 1009.45 1009.94 1010.44 1010.94 1011.45 1011.97 1012.50 1013.05 1013.63 1014.22 1014.81 1015.39 1015.94 1016.45 1016.89 1017.28 1017.61 1017.89 1018.13 1018.35 1018.57 1018.80 1019.05 1019.32 1019.60 1019.88 1020.15
1013.48 1013.18 1012.85 1012.51 1012.17 1011.82 1011.44 1011.02 1010.56 1010.06 1009.54 1009.04 1008.59 1008.22 1007.96 1007.81 1007.79 1007.89 1008.08 1008.35 1008.67 1009.03 1009.42 1009.83 1010.26 1010.72 1011.21 1011.73 1012.28 1012.87 1013.47 1014.09 1014.70 1015.29 1015.86 1016.38 1016.86 1017.28 1017.65 1017.97 1018.25 1018.51 1018.75 1018.99 1019.24 1019.49 1019.76 1020.04 1020.31
1013.07 1012.86 1012.66 1012.48 1012.30 1012.09 1011.83 1011.50 1011.09 1010.61 1010.11 1009.62 1009.18 1008.82 1008.58 1008.45 1008.43 1008.50 1008.64 1008.83 1009.05 1009.29 1009.56 1009.85 1010.19 1010.59 1011.04 1011.56 1012.13 1012.74 1013.38 1014.02 1014.66 1015.28 1015.87 1016.42 1016.92 1017.38 1017.79 1018.15 1018.47 1018.76 1019.02 1019.26 1019.50 1019.75 1020.00 1020.26 1020.53
1012.56 1012.47 1012.42 1012.41 1012.40 1012.34 1012.20 1011.95 1011.61 1011.18 1010.72 1010.26 1009.87 1009.56 1009.36 1009.27 1009.27 1009.33 1009.42 1009.52 1009.62 1009.73 1009.86 1010.02 1010.25 1010.57 1010.97 1011.48 1012.06 1012.70 1013.38 1014.07 1014.75 1015.40 1016.02 1016.59 1017.12 1017.61 1018.05 1018.45 1018.81 1019.12 1019.41 1019.66 1019.90 1020.13 1020.37 1020.61 1020.87
1012.05 1012.08 1012.19 1012.34 1012.48 1012.56 1012.53 1012.37 1012.09 1011.72 1011.31 1010.92 1010.59 1010.36 1010.23 1010.21 1010.24 1010.30 1010.35 1010.38 1010.36 1010.33 1010.31 1010.34 1010.45 1010.68 1011.04 1011.52 1012.12 1012.80 1013.52 1014.26 1014.99 1015.68 1016.33 1016.93 1017.49 1018.00 1018.47 1018.89 1019.28 1019.62 1019.93 1020.20 1020.45 1020.68 1020.91 1021.14 1021.38
1011.63 1011.79 1012.04 1012.34 1012.61 1012.79 1012.84 1012.75 1012.52 1012.20 1011.85 1011.53 1011.28 1011.15 1011.12 1011.17 1011.26 1011.34 1011.37 1011.33 1011.22 1011.06 1010.90 1010.80 1010.80 1010.94 1011.25 1011.72 1012.33 1013.04 1013.82 1014.62 1015.40 1016.13 1016.81 1017.44 1018.01 1018.53 1019.01 1019.46 1019.86 1020.23 1020.56 1020.86 1021.12 1021.36 1021.59 1021.82 1022.04
1011.37 1011.65 1012.03 1012.44 1012.80 1013.04 1013.14 1013.08 1012.88 1012.60 1012.30 1012.05 1011.90 1011.87 1011.95 1012.09 1012.26 1012.37 1012.40 1012.32 1012.14 1011.88 1011.61 1011.39 1011.30 1011.37 1011.64 1012.09 1012.72 1013.47 1014.30 1015.15 1015.97 1016.74 1017.45 1018.09 1018.66 1019.18 1019.67 1020.11 1020.53 1020.91 1021.27 1021.59 1021.88 1022.14 1022.38 1022.60 1022.82
1011.30 1011.68 1012.15 1012.62 1013.03 1013.30 1013.41 1013.34 1013.15 1012.89 1012.64 1012.47 1012.41 1012.48 1012.67 1012.92 1013.16 1013.34 1013.39 1013.30 1013.07 1012.75 1012.41 1012.11 1011.95 1011.97 1012.21 1012.66 1013.30 1014.08 1014.95 1015.84 1016.70 1017.50 1018.21 1018.85 1019.41 1019.92 1020.38 1020.81 1021.22 1021.61 1021.98 1022.32 1022.64 1022.92 1023.18 1023.41 1023.63
1011.41 1011.86 1012.36 1012.86 1013.27 1013.52 1013.60 1013.52 1013.33 1013.08 1012.87 1012.76 1012.79 1012.97 1013.26 1013.61 1013.94 1014.19 1014.28 1014.21 1013.98 1013.65 1013.27 1012.94 1012.74 1012.74 1012.96 1013.41 1014.06 1014.87 1015.76 1016.67 1017.55 1018.35 1019.07 1019.69 1020.22 1020.70 1021.12 1021.53 1021.92 1022.29 1022.66 1023.01 1023.34 1023.64 1023.92 1024.16 1024.37
1011.63 1012.10 1012.61 1013.08 1013.45 1013.66 1013.70 1013.59 1013.38 1013.16 1012.99 1012.94 1013.05 1013.33 1013.72 1014.16 1014.58 1014.90 1015.07 1015.04 1014.85 1014.54 1014.18 1013.86 1013.66 1013.66 1013.89 1014.34 1015.00 1015.80 1016.70 1017.61 1018.48 1019.28 1019.97 1020.56 1021.06 1021.48 1021.87 1022.23 1022.58 1022.93 1023.28 1023.63 1023.95 1024.26 1024.54 1024.78 1024.99
1011.88 1012.33 1012.79 1013.21 1013.50 1013.65 1013.65 1013.52 1013.31 1013.12 1013.01 1013.03 1013.23 1013.58 1014.06 1014.60 1015.10 1015.50 1015.74 1015.79 1015.67 1015.42 1015.12 1014.85 1014.70 1014.72 1014.96 1015.42 1016.07 1016.86 1017.74 1018.63 1019.47 1020.23 1020.89 1021.44 1021.89 1022.28 1022.61 1022.92 1023.23 1023.54 1023.85 1024.17 1024.47 1024.76 1025.03 1025.26 1025.46
1012.09 1012.47 1012.85 1013.18 1013.40 1013.48 1013.44 1013.31 1013.13 1012.99 1012.95 1013.06 1013.34 1013.78 1014.34 1014.95 1015.52 1016.00 1016.32 1016.46 1016.44 1016.29 1016.09 1015.90 1015.82 1015.89 1016.15 1016.61 1017.24 1018.00 1018.83 1019.67 1020.47 1021.18 1021.80 1022.30 1022.72 1023.06 1023.35 1023.62 1023.87 1024.13 1024.40 1024.67 1024.93 1025.18 1025.41 1025.61 1025.79
1012.21 1012.50 1012.77 1012.99 1013.13 1013.16 1013.10 1012.99 1012.88 1012.82 1012.88 1013.09 1013.46 1013.97 1014.60 1015.26 1015.89 1016.44 1016.84 1017.08 1017.17 1017.14 1017.06 1016.99 1016.99 1017.12 1017.41 1017.86 1018.46 1019.17 1019.93 1020.70 1021.44 1022.10 1022.66 1023.14 1023.52 1023.83 1024.10 1024.33 1024.54 1024.75 1024.96 1025.17 1025.37 1025.56 1025.73 1025.88 1026.01
Thickness
5773 5775 5772 5761 5738 5718 5721 5737 5750 5753 5759 5769 5774 5771 5766 5764 5759 5758 5786 5797 5796 5792 5787 5783 5780 5778 5776 5775 5775 5774 5773 5772 5770 5769 5767 5765 5763 5761 5759 5757 5756 5754 5753 5752 5750 5749 5747 5746 5744
5771 5771 5761 5744 5719 5705 5717 5739 5747 5755 5766 5771 5772 5772 5768 5769 5780 5782 5786 5792 5793 5789 5784 5780 5777 5775 5773 5772 5771 5770 5768 5767 5765 5764 5762 5761 5759 5757 5756 5754 5753 5751 5750 5749 5747 5746 5745 5743 5742
5769 5765 5745 5725 5711 5709 5725 5745 5751 5760 5770 5769 5766 5770 5770 5771 5780 5784 5789 5791 5788 5784 5780 5776 5773 5771 5769 5768 5767 5765 5764 5762 5761 5759 5758 5757 5755 5754 5752 5751 5749 5748 5747 5746 5744 5743 5742 5741 5740
5760 5746 5731 5715 5713 5724 5737 5750 5755 5755 5763 5769 5766 5764 5772 5783 5784 5788 5792 5790 5783 5779 5776 5772 5770 5768 5766 5764 5763 5761 5759 5758 5757 5755 5754 5753 5751 5750 5749 5747 5746 5745 5744 5743 5742 5740 5740 5739 5738
5747 5729 5714 5704 5714 5730 5743 5751 5754 5751 5756 5765 5766 5762 5766 5781 5788 5790 5790 5787 5780 5775 5772 5769 5766 5764 5762 5761 5759 5758 5756 5754 5753 5752 5750 5749 5748 5747 5745 5744 5743 5742 5741 5740 5739 5738 5737 5737 5736
5724 5714 5696 5694 5711 5730 5743 5752 5752 5751 5755 5762 5763 5760 5766 5778 5783 5785 5787 5784 5779 5773 5769 5765 5762 5760 5759 5757 5756 5754 5752 5750 5749 5748 5747 5746 5745 5744 5743 5741 5740 5739 5738 5737 5736 5736 5735 5734 5734
5713 5701 5694 5700 5709 5722 5741 5752 5749 5748 5750 5758 5765 5758 5766 5774 5780 5785 5785 5782 5777 5771 5765 5761 5758 5756 5755 5753 5752 5750 5749 5747 5746 5745 5744 5743 5742 5741 5740 5739 5738 5737 5736 5735 5734 5733 5733 5732 5731
5715 5699 5696 5696 5705 5718 5739 5746 5750 5749 5750 5764 5765 5757 5763 5773 5781 5783 5782 5779 5773 5767 5762 5757 5755 5753 5751 5750 5748 5747 5746 5744 5743 5742 5741 5740 5739 5738 5737 5736 5735 5734 5733 5732 5731 5731 5730 5730 5729
5713 5686 5682 5693 5702 5716 5733 5736 5743 5751 5751 5756 5763 5768 5774 5777 5779 5778 5775 5773 5767 5762 5759 5755 5753 5750 5749 5747 5746 5744 5742 5741 5740 5739 5738 5737 5736 5735 5734 5733 5732 5731 5731 5730 5729 5729 5728 5728 5727
5697 5677 5686 5701 5710 5718 5725 5728 5734 5738 5739 5745 5754 5765 5772 5773 5774 5773 5771 5769 5765 5760 5758 5754 5750 5749 5747 5745 5743 5741 5740 5738 5737 5736 5735 5734 5733 5732 5731 5730 5729 5729 5728 5727 5727 5727 5726 5726 5725
5695 5687 5696 5705 5712 5715 5717 5723 5731 5731 5731 5743 5750 5758 5764 5766 5769 5770 5770 5769 5766 5763 5758 5753 5749 5746 5745 5744 5741 5739 5737 5735 5734 5733 5732 5730 5729 5728 5728 5727 5726 5726 5725 5725 5724 5724 5724 5724 5723
5690 5695 5699 5707 5714 5713 5714 5720 5724 5728 5740 5755 5759 5762 5762 5763 5765 5767 5765 5764 5764 5761 5756 5751 5747 5744 5743 5742 5740 5737 5735 5733 5732 5730 5729 5727 5726 5725 5725 5724 5723 5723 5723 5722 5722 5722 5722 5721 5721
5688 5693 5702 5706 5707 5709 5712 5714 5720 5728 5746 5752 5755 5756 5758 5761 5763 5765 5764 5762 5759 5756 5753 5748 5746 5743 5741 5739 5738 5736 5734 5732 5730 5728 5726 5725 5724 5723 5722 5721 5721 5720 5720 5719 5719 5719 5719 5719 5718
5690 5691 5696 5700 5703 5708 5708 5711 5713 5726 5739 5743 5746 5748 5753 5758 5760 5759 5759 5758 5756 5754 5752 5749 5746 5742 5739 5737 5736 5734 5731 5729 5727 5725 5723 5722 5721 5720 5719 5718 5718 5717 5717 5716 5715 5715 5715 5715 5715
5686 5683 5686 5694 5699 5704 5704 5701 5707 5722 5729 5731 5736 5741 5747 5752 5756 5756 5757 5755 5754 5752 5750 5747 5744 5741 5736 5733 5732 5730 5728 5726 5723 5721 5720 5720 5719 5717 5716 5715 5715 5715 5714 5713 5712 5711 5711 5711 5710
5676 5670 5667 5681 5690 5697 5693 5684 5702 5712 5715 5719 5725 5732 5739 5745 5749 5752 5754 5752 5751 5749 5747 5746 5744 5738 5733 5730 5728 5726 5723 5721 5719 5717 5717 5716 5715 5714 5713 5712 5712 5712 5711 5709 5708 5707 5706 5705 5704
5652 5649 5656 5667 5681 5685 5680 5675 5692 5700 5704 5708 5716 5722 5729 5735 5739 5743 5747 5748 5747 5745 5743 5740 5738 5734 5729 5725 5723 5721 5718 5717 5715 5713 5712 5711 5710 5710 5709 5708 5707 5706 5705 5704 5703 5701 5700 5698 5696
5644 5647 5651 5655 5670 5673 5668 5669 5681 5690 5694 5698 5706 5712 5718 5723 5728 5734 5739 5741 5740 5739 5737 5734 5732 5729 5724 5720 5717 5714 5712 5711 5709 5708 5707 5706 5704 5704 5703 5702 5701 5700 5698 5697 5696 5694 5693 5691 5690
5651 5648 5645 5656 5670 5666 5663 5665 5673 5681 5686 5689 5694 5700 5705 5711 5718 5724 5729 5732 5731 5730 5728 5727 5724 5721 5718 5713 5710 5705 5703 5701 5700 5699 5699 5698 5698 5697 5697 5696 5695 5693 5692 5690 5689 5688 5685 5682 5682
5646 5642 5644 5656 5668 5665 5659 5661 5669 5674 5677 5680 5684 5690 5695 5700 5706 5712 5716 5720 5720 5720 5719 5717 5716 5715 5713 5709 5705 5700 5696 5693 5692 5690 5689 5690 5689 5689 5689 5688 5686 5684 5683 5682 5681 5681 5677 5675 5673
5647 5643 5647 5651 5659 5663 5657 5652 5659 5666 5671 5673 5676 5681 5686 5691 5694 5699 5704 5707 5709 5709 5709 5709 5709 5708 5706 5703 5699 5694 5689 5685 5681 5680 5679 5679 5680 5680 5679 5678 5677 5675 5674 5673 5672 5672 5672 5668 5665
5644 5658 5655 5654 5647 5641 5651 5635 5649 5657 5661 5663 5665 5669 5673 5677 5682 5686 5690 5693 5695 5697 5699 5699 5699 5699 5699 5698 5695 5690 5685 5677 5672 5671 5668 5667 5668 5670 5669 5668 5667 5666 5665 5663 5663 5663 5663 5661 5658
5655 5663 5658 5655 5646 5640 5643 5636 5639 5653 5652 5653 5656 5659 5661 5665 5669 5672 5676 5679 5683 5686 5687 5689 5690 5690 5690 5690 5689 5683 5675 5670 5664 5662 5659 5657 5657 5658 5658 5657 5656 5655 5654 5653 5652 5652 5651 5650 5647
5661 5656 5649 5639 5634 5628 5640 5634 5635 5645 5650 5649 5650 5650 5652 5654 5657 5660 5663 5668 5671 5674 5676 5678 5679 5679 5680 5680 5678 5673 5668 5663 5657 5652 5649 5647 5646 5645 5645 5645 5645 5643 5642 5642 5641 5640 5638 5636 5635
5651 5636 5621 5622 5615 5622 5637 5634 5634 5646 5651 5649 5645 5643 5643 5645 5647 5648 5650 5654 5657 5660 5663 5665 5667 5666 5666 5667 5664 5662 5659 5656 5649 5644 5640 5637 5635 5634 5633 5633 5633 5632 5631 5630 5629 5627 5625 5623 5622
5644 5636 5619 5616 5615 5619 5632 5630 5636 5643 5644 5643 5639 5636 5635 5635 5635 5636 5637 5640 5642 5645 5648 5650 5652 5652 5652 5653 5651 5649 5646 5643 5638 5634 5630 5627 5624 5622 5622 5622 5621 5620 5619 5617 5616 5615 5612 5610 5608
5640 5633 5635 5623 5621 5614 5619 5628 5632 5636 5635 5634 5632 5629 5626 5625 5625 5625 5625 5627 5630 5631 5633 5636 5638 5638 5637 5638 5637 5634 5632 5629 5625 5621 5618 5615 5613 5611 5610 5609 5609 5607 5606 5604 5603 5601 5599 5597 5594
5643 5636 5622 5617 5611 5610 5617 5623 5629 5633 5633 5630 5626 5622 5618 5616 5615 5614 5614 5615 5616 5618 5620 5622 5623 5623 5623 5623 5623 5620 5617 5614 5611 5608 5606 5604 5602 5601 5599 5598 5597 5595 5592 5591 5589 5587 5585 5583 5579
5635 5631 5624 5615 5617 5611 5608 5616 5637 5637 5634 5628 5622 5617 5612 5608 5605 5604 5603 5603 5605 5606 5607 5608 5609 5609 5609 5609 5608 5606 5602 5600 5598 5596 5593 5591 5590 5589 5587 5586 5583 5581 5579 5578 5576 5573 5571 5569 5565
5638 5634 5625 5620 5618 5616 5613 5616 5634 5635 5631 5624 5616 5609 5604 5600 5596 5593 5593 5593 5593 5593 5594 5595 5595 5595 5594 5594 5593 5591 5588 5586 5584 5581 5580 5579 5577 5575 5573 5572 5570 5568 5565 5564 5562 5559 5556 5553 5550